Year,Month,Day,Hour,Minute,Value (Times are PST for temperature in C)
2019,05,06,00,00,11.80
2019,05,06,00,01,11.80
2019,05,06,00,02,11.70
2019,05,06,00,03,11.70
2019,05,06,00,04,11.70
2019,05,06,00,05,11.70
2019,05,06,00,06,11.70
2019,05,06,00,07,11.70
2019,05,06,00,08,11.60
2019,05,06,00,09,11.60
2019,05,06,00,10,11.60
2019,05,06,00,11,11.60
2019,05,06,00,12,11.50
2019,05,06,00,13,11.50
2019,05,06,00,14,11.50
2019,05,06,00,15,11.50
2019,05,06,00,16,11.50
2019,05,06,00,17,11.40
2019,05,06,00,18,11.40
2019,05,06,00,19,11.40
2019,05,06,00,20,11.30
2019,05,06,00,21,11.30
2019,05,06,00,22,11.30
2019,05,06,00,23,11.30
2019,05,06,00,24,11.30
2019,05,06,00,25,11.30
2019,05,06,00,26,11.30
2019,05,06,00,27,11.30
2019,05,06,00,28,11.30
2019,05,06,00,29,11.30
2019,05,06,00,30,11.30
2019,05,06,00,31,11.20
2019,05,06,00,32,11.20
2019,05,06,00,33,11.20
2019,05,06,00,34,11.20
2019,05,06,00,35,11.10
2019,05,06,00,36,11.10
2019,05,06,00,37,11.10
2019,05,06,00,38,11.10
2019,05,06,00,39,11.10
2019,05,06,00,40,11.10
2019,05,06,00,41,11.10
2019,05,06,00,42,11.10
2019,05,06,00,43,11.10
2019,05,06,00,44,11.10
2019,05,06,00,45,11.00
2019,05,06,00,46,11.00
2019,05,06,00,47,11.00
2019,05,06,00,48,10.90
2019,05,06,00,49,10.90
2019,05,06,00,50,10.90
2019,05,06,00,51,10.80
2019,05,06,00,52,10.80
2019,05,06,00,53,10.80
2019,05,06,00,54,10.80
2019,05,06,00,55,10.70
2019,05,06,00,56,10.70
2019,05,06,00,57,10.70
2019,05,06,00,58,10.70
2019,05,06,00,59,10.70
2019,05,06,01,00,10.60
2019,05,06,01,01,10.60
2019,05,06,01,02,10.70
2019,05,06,01,03,10.70
2019,05,06,01,04,10.70
2019,05,06,01,05,10.70
2019,05,06,01,06,10.70
2019,05,06,01,07,10.60
2019,05,06,01,08,10.60
2019,05,06,01,09,10.60
2019,05,06,01,10,10.60
2019,05,06,01,11,10.60
2019,05,06,01,12,10.60
2019,05,06,01,13,10.60
2019,05,06,01,14,10.60
2019,05,06,01,15,10.60
2019,05,06,01,16,10.60
2019,05,06,01,17,10.60
2019,05,06,01,18,10.60
2019,05,06,01,19,10.60
2019,05,06,01,20,10.60
2019,05,06,01,21,10.70
2019,05,06,01,22,10.70
2019,05,06,01,23,10.70
2019,05,06,01,24,10.70
2019,05,06,01,25,10.70
2019,05,06,01,26,10.70
2019,05,06,01,27,10.80
2019,05,06,01,28,10.80
2019,05,06,01,29,10.90
2019,05,06,01,30,10.90
2019,05,06,01,31,10.90
2019,05,06,01,32,10.90
2019,05,06,01,33,10.90
2019,05,06,01,34,10.90
2019,05,06,01,35,10.80
2019,05,06,01,36,10.80
2019,05,06,01,37,10.80
2019,05,06,01,38,10.80
2019,05,06,01,39,10.80
2019,05,06,01,40,10.80
2019,05,06,01,41,10.80
2019,05,06,01,42,10.70
2019,05,06,01,43,10.70
2019,05,06,01,44,10.70
2019,05,06,01,45,10.60
2019,05,06,01,46,10.60
2019,05,06,01,47,10.50
2019,05,06,01,48,10.50
2019,05,06,01,49,10.40
2019,05,06,01,50,10.40
2019,05,06,01,51,10.40
2019,05,06,01,52,10.30
2019,05,06,01,53,10.30
2019,05,06,01,54,10.30
2019,05,06,01,55,10.30
2019,05,06,01,56,10.30
2019,05,06,01,57,10.20
2019,05,06,01,58,10.20
2019,05,06,01,59,10.20
2019,05,06,02,00,10.20
2019,05,06,02,01,10.20
2019,05,06,02,02,10.10
2019,05,06,02,03,10.10
2019,05,06,02,04,10.10
2019,05,06,02,05,10.10
2019,05,06,02,06,10.10
2019,05,06,02,07,10.00
2019,05,06,02,08,10.00
2019,05,06,02,09,9.90
2019,05,06,02,10,9.90
2019,05,06,02,11,9.90
2019,05,06,02,12,9.90
2019,05,06,02,13,9.90
2019,05,06,02,14,9.80
2019,05,06,02,15,9.80
2019,05,06,02,16,9.80
2019,05,06,02,17,9.80
2019,05,06,02,18,9.70
2019,05,06,02,19,9.70
2019,05,06,02,20,9.70
2019,05,06,02,21,9.70
2019,05,06,02,22,9.70
2019,05,06,02,23,9.70
2019,05,06,02,24,9.70
2019,05,06,02,25,9.70
2019,05,06,02,26,9.70
2019,05,06,02,27,9.70
2019,05,06,02,28,9.70
2019,05,06,02,29,9.70
2019,05,06,02,30,9.70
2019,05,06,02,31,9.60
2019,05,06,02,32,9.60
2019,05,06,02,33,9.60
2019,05,06,02,34,9.60
2019,05,06,02,35,9.60
2019,05,06,02,36,9.60
2019,05,06,02,37,9.60
2019,05,06,02,38,9.60
2019,05,06,02,39,9.60
2019,05,06,02,40,9.60
2019,05,06,02,41,9.60
2019,05,06,02,42,9.60
2019,05,06,02,43,9.60
2019,05,06,02,44,9.60
2019,05,06,02,45,9.60
2019,05,06,02,46,9.60
2019,05,06,02,47,9.60
2019,05,06,02,48,9.60
2019,05,06,02,49,9.60
2019,05,06,02,50,9.50
2019,05,06,02,51,9.50
2019,05,06,02,52,9.50
2019,05,06,02,53,9.40
2019,05,06,02,54,9.40
2019,05,06,02,55,9.40
2019,05,06,02,56,9.40
2019,05,06,02,57,9.30
2019,05,06,02,58,9.30
2019,05,06,02,59,9.30
2019,05,06,03,00,9.30
2019,05,06,03,01,9.30
2019,05,06,03,02,9.30
2019,05,06,03,03,9.30
2019,05,06,03,04,9.30
2019,05,06,03,05,9.30
2019,05,06,03,06,9.30
2019,05,06,03,07,9.30
2019,05,06,03,08,9.30
2019,05,06,03,09,9.30
2019,05,06,03,10,9.40
2019,05,06,03,11,9.40
2019,05,06,03,12,9.40
2019,05,06,03,13,9.40
2019,05,06,03,14,9.40
2019,05,06,03,15,9.40
2019,05,06,03,16,9.40
2019,05,06,03,17,9.40
2019,05,06,03,18,9.40
2019,05,06,03,19,9.40
2019,05,06,03,20,9.40
2019,05,06,03,21,9.40
2019,05,06,03,22,9.40
2019,05,06,03,23,9.40
2019,05,06,03,24,9.30
2019,05,06,03,25,9.30
2019,05,06,03,26,9.30
2019,05,06,03,27,9.20
2019,05,06,03,28,9.20
2019,05,06,03,29,9.20
2019,05,06,03,30,9.20
2019,05,06,03,31,9.20
2019,05,06,03,32,9.20
2019,05,06,03,33,9.20
2019,05,06,03,34,9.20
2019,05,06,03,35,9.20
2019,05,06,03,36,9.20
2019,05,06,03,37,9.20
2019,05,06,03,38,9.20
2019,05,06,03,39,9.20
2019,05,06,03,40,9.20
2019,05,06,03,41,9.20
2019,05,06,03,42,9.20
2019,05,06,03,43,9.20
2019,05,06,03,44,9.20
2019,05,06,03,45,9.20
2019,05,06,03,46,9.20
2019,05,06,03,47,9.20
2019,05,06,03,48,9.20
2019,05,06,03,49,9.10
2019,05,06,03,50,9.10
2019,05,06,03,51,9.10
2019,05,06,03,52,9.10
2019,05,06,03,53,9.00
2019,05,06,03,54,9.00
2019,05,06,03,55,9.00
2019,05,06,03,56,9.00
2019,05,06,03,57,8.90
2019,05,06,03,58,8.90
2019,05,06,03,59,8.90
2019,05,06,04,00,8.90
2019,05,06,04,01,8.90
2019,05,06,04,02,8.80
2019,05,06,04,03,8.80
2019,05,06,04,04,8.80
2019,05,06,04,05,8.80
2019,05,06,04,06,8.80
2019,05,06,04,07,8.70
2019,05,06,04,08,8.70
2019,05,06,04,09,8.70
2019,05,06,04,10,8.70
2019,05,06,04,11,8.70
2019,05,06,04,12,8.70
2019,05,06,04,13,8.70
2019,05,06,04,14,8.70
2019,05,06,04,15,8.60
2019,05,06,04,16,8.60
2019,05,06,04,17,8.60
2019,05,06,04,18,8.60
2019,05,06,04,19,8.60
2019,05,06,04,20,8.60
2019,05,06,04,21,8.60
2019,05,06,04,22,8.60
2019,05,06,04,23,8.60
2019,05,06,04,24,8.60
2019,05,06,04,25,8.60
2019,05,06,04,26,8.60
2019,05,06,04,27,8.60
2019,05,06,04,28,8.60
2019,05,06,04,29,8.60
2019,05,06,04,30,8.60
2019,05,06,04,31,8.60
2019,05,06,04,32,8.60
2019,05,06,04,33,8.60
2019,05,06,04,34,8.60
2019,05,06,04,35,8.60
2019,05,06,04,36,8.50
2019,05,06,04,37,8.50
2019,05,06,04,38,8.50
2019,05,06,04,39,8.50
2019,05,06,04,40,8.50
2019,05,06,04,41,8.40
2019,05,06,04,42,8.40
2019,05,06,04,43,8.40
2019,05,06,04,44,8.40
2019,05,06,04,45,8.40
2019,05,06,04,46,8.40
2019,05,06,04,47,8.40
2019,05,06,04,48,8.40
2019,05,06,04,49,8.40
2019,05,06,04,50,8.40
2019,05,06,04,51,8.40
2019,05,06,04,52,8.40
2019,05,06,04,53,8.40
2019,05,06,04,54,8.50
2019,05,06,04,55,8.50
2019,05,06,04,56,8.50
2019,05,06,04,57,8.50
2019,05,06,04,58,8.50
2019,05,06,04,59,8.50
2019,05,06,05,00,8.50
2019,05,06,05,01,8.50
2019,05,06,05,02,8.60
2019,05,06,05,03,8.60
2019,05,06,05,04,8.60
2019,05,06,05,05,8.50
2019,05,06,05,06,8.60
2019,05,06,05,07,8.60
2019,05,06,05,08,8.60
2019,05,06,05,09,8.60
2019,05,06,05,10,8.60
2019,05,06,05,11,8.60
2019,05,06,05,12,8.60
2019,05,06,05,13,8.60
2019,05,06,05,14,8.60
2019,05,06,05,15,8.60
2019,05,06,05,16,8.50
2019,05,06,05,17,8.50
2019,05,06,05,18,8.40
2019,05,06,05,19,8.40
2019,05,06,05,20,8.40
2019,05,06,05,21,8.40
2019,05,06,05,22,8.40
2019,05,06,05,23,8.30
2019,05,06,05,24,8.30
2019,05,06,05,25,8.30
2019,05,06,05,26,8.30
2019,05,06,05,27,8.20
2019,05,06,05,28,8.20
2019,05,06,05,29,8.20
2019,05,06,05,30,8.20
2019,05,06,05,31,8.20
2019,05,06,05,32,8.20
2019,05,06,05,33,8.20
2019,05,06,05,34,8.20
2019,05,06,05,35,8.30
2019,05,06,05,36,8.30
2019,05,06,05,37,8.30
2019,05,06,05,38,8.30
2019,05,06,05,39,8.30
2019,05,06,05,40,8.20
2019,05,06,05,41,8.20
2019,05,06,05,42,8.20
2019,05,06,05,43,8.20
2019,05,06,05,44,8.20
2019,05,06,05,45,8.20
2019,05,06,05,46,8.20
2019,05,06,05,47,8.20
2019,05,06,05,48,8.20
2019,05,06,05,49,8.20
2019,05,06,05,50,8.20
2019,05,06,05,51,8.20
2019,05,06,05,52,8.20
2019,05,06,05,53,8.20
2019,05,06,05,54,8.20
2019,05,06,05,55,8.20
2019,05,06,05,56,8.20
2019,05,06,05,57,8.20
2019,05,06,05,58,8.10
2019,05,06,05,59,8.10
2019,05,06,06,00,8.20
2019,05,06,06,01,8.10
2019,05,06,06,02,8.10
2019,05,06,06,03,8.10
2019,05,06,06,04,8.10
2019,05,06,06,05,8.10
2019,05,06,06,06,8.00
2019,05,06,06,07,8.00
2019,05,06,06,08,8.00
2019,05,06,06,09,8.00
2019,05,06,06,10,8.10
2019,05,06,06,11,8.10
2019,05,06,06,12,8.10
2019,05,06,06,13,8.10
2019,05,06,06,14,8.10
2019,05,06,06,15,8.20
2019,05,06,06,16,8.20
2019,05,06,06,17,8.20
2019,05,06,06,18,8.20
2019,05,06,06,19,8.20
2019,05,06,06,20,8.20
2019,05,06,06,21,8.30
2019,05,06,06,22,8.30
2019,05,06,06,23,8.30
2019,05,06,06,24,8.30
2019,05,06,06,25,8.30
2019,05,06,06,26,8.30
2019,05,06,06,27,8.30
2019,05,06,06,28,8.30
2019,05,06,06,29,8.30
2019,05,06,06,30,8.30
2019,05,06,06,31,8.30
2019,05,06,06,32,8.40
2019,05,06,06,33,8.40
2019,05,06,06,34,8.40
2019,05,06,06,35,8.50
2019,05,06,06,36,8.50
2019,05,06,06,37,8.50
2019,05,06,06,38,8.50
2019,05,06,06,39,8.50
2019,05,06,06,40,8.50
2019,05,06,06,41,8.60
2019,05,06,06,42,8.60
2019,05,06,06,43,8.60
2019,05,06,06,44,8.70
2019,05,06,06,45,8.70
2019,05,06,06,46,8.70
2019,05,06,06,47,8.80
2019,05,06,06,48,8.80
2019,05,06,06,49,8.90
2019,05,06,06,50,9.00
2019,05,06,06,51,9.00
2019,05,06,06,52,9.10
2019,05,06,06,53,9.10
2019,05,06,06,54,9.10
2019,05,06,06,55,9.20
2019,05,06,06,56,9.20
2019,05,06,06,57,9.30
2019,05,06,06,58,9.30
2019,05,06,06,59,9.40
2019,05,06,07,00,9.50
2019,05,06,07,01,9.60
2019,05,06,07,02,9.70
2019,05,06,07,03,9.80
2019,05,06,07,04,9.90
2019,05,06,07,05,10.00
2019,05,06,07,06,10.00
2019,05,06,07,07,10.10
2019,05,06,07,08,10.20
2019,05,06,07,09,10.30
2019,05,06,07,10,10.40
2019,05,06,07,11,10.50
2019,05,06,07,12,10.60
2019,05,06,07,13,10.70
2019,05,06,07,14,10.80
2019,05,06,07,15,10.90
2019,05,06,07,16,11.10
2019,05,06,07,17,11.20
2019,05,06,07,18,11.30
2019,05,06,07,19,11.40
2019,05,06,07,20,11.50
2019,05,06,07,21,11.60
2019,05,06,07,22,11.70
2019,05,06,07,23,11.80
2019,05,06,07,24,12.00
2019,05,06,07,25,12.10
2019,05,06,07,26,12.20
2019,05,06,07,27,12.20
2019,05,06,07,28,12.20
2019,05,06,07,29,12.30
2019,05,06,07,30,12.40
2019,05,06,07,31,12.50
2019,05,06,07,32,12.60
2019,05,06,07,33,12.70
2019,05,06,07,34,12.90
2019,05,06,07,35,13.00
2019,05,06,07,36,13.10
2019,05,06,07,37,13.20
2019,05,06,07,38,13.40
2019,05,06,07,39,13.40
2019,05,06,07,40,13.50
2019,05,06,07,41,13.60
2019,05,06,07,42,13.70
2019,05,06,07,43,13.80
2019,05,06,07,44,13.80
2019,05,06,07,45,13.80
2019,05,06,07,46,13.80
2019,05,06,07,47,13.90
2019,05,06,07,48,13.90
2019,05,06,07,49,13.90
2019,05,06,07,50,14.00
2019,05,06,07,51,14.00
2019,05,06,07,52,14.10
2019,05,06,07,53,14.10
2019,05,06,07,54,14.20
2019,05,06,07,55,14.30
2019,05,06,07,56,14.30
2019,05,06,07,57,14.40
2019,05,06,07,58,14.40
2019,05,06,07,59,14.40
2019,05,06,08,00,14.40
2019,05,06,08,01,14.40
2019,05,06,08,02,14.40
2019,05,06,08,03,14.40
2019,05,06,08,04,14.40
2019,05,06,08,05,14.50
2019,05,06,08,06,14.50
2019,05,06,08,07,14.50
2019,05,06,08,08,14.60
2019,05,06,08,09,14.60
2019,05,06,08,10,14.60
2019,05,06,08,11,14.70
2019,05,06,08,12,14.70
2019,05,06,08,13,14.80
2019,05,06,08,14,14.90
2019,05,06,08,15,14.90
2019,05,06,08,16,14.90
2019,05,06,08,17,15.00
2019,05,06,08,18,15.00
2019,05,06,08,19,15.00
2019,05,06,08,20,15.10
2019,05,06,08,21,15.10
2019,05,06,08,22,15.20
2019,05,06,08,23,15.20
2019,05,06,08,24,15.30
2019,05,06,08,25,15.30
2019,05,06,08,26,15.30
2019,05,06,08,27,15.30
2019,05,06,08,28,15.30
2019,05,06,08,29,15.30
2019,05,06,08,30,15.20
2019,05,06,08,31,15.20
2019,05,06,08,32,15.20
2019,05,06,08,33,15.10
2019,05,06,08,34,15.10
2019,05,06,08,35,15.10
2019,05,06,08,36,15.10
2019,05,06,08,37,15.20
2019,05,06,08,38,15.20
2019,05,06,08,39,15.20
2019,05,06,08,40,15.30
2019,05,06,08,41,15.30
2019,05,06,08,42,15.30
2019,05,06,08,43,15.30
2019,05,06,08,44,15.20
2019,05,06,08,45,15.20
2019,05,06,08,46,15.20
2019,05,06,08,47,15.30
2019,05,06,08,48,15.30
2019,05,06,08,49,15.30
2019,05,06,08,50,15.40
2019,05,06,08,51,15.40
2019,05,06,08,52,15.40
2019,05,06,08,53,15.40
2019,05,06,08,54,15.50
2019,05,06,08,55,15.50
2019,05,06,08,56,15.60
2019,05,06,08,57,15.60
2019,05,06,08,58,15.60
2019,05,06,08,59,15.60
2019,05,06,09,00,15.60
2019,05,06,09,01,15.70
2019,05,06,09,02,15.70
2019,05,06,09,03,15.70
2019,05,06,09,04,15.70
2019,05,06,09,05,15.70
2019,05,06,09,06,15.70
2019,05,06,09,07,15.70
2019,05,06,09,08,15.80
2019,05,06,09,09,15.80
2019,05,06,09,10,15.80
2019,05,06,09,11,15.80
2019,05,06,09,12,15.80
2019,05,06,09,13,15.80
2019,05,06,09,14,15.90
2019,05,06,09,15,15.90
2019,05,06,09,16,16.00
2019,05,06,09,17,16.10
2019,05,06,09,18,16.20
2019,05,06,09,19,16.10
2019,05,06,09,20,16.10
2019,05,06,09,21,16.00
2019,05,06,09,22,16.00
2019,05,06,09,23,16.00
2019,05,06,09,24,16.10
2019,05,06,09,25,16.10
2019,05,06,09,26,16.10
2019,05,06,09,27,16.10
2019,05,06,09,28,16.10
2019,05,06,09,29,16.10
2019,05,06,09,30,16.00
2019,05,06,09,31,15.90
2019,05,06,09,32,15.80
2019,05,06,09,33,15.80
2019,05,06,09,34,15.70
2019,05,06,09,35,15.70
2019,05,06,09,36,15.80
2019,05,06,09,37,15.80
2019,05,06,09,38,15.80
2019,05,06,09,39,15.80
2019,05,06,09,40,15.80
2019,05,06,09,41,15.80
2019,05,06,09,42,15.90
2019,05,06,09,43,15.90
2019,05,06,09,44,15.90
2019,05,06,09,45,16.00
2019,05,06,09,46,16.00
2019,05,06,09,47,16.10
2019,05,06,09,48,16.10
2019,05,06,09,49,16.20
2019,05,06,09,50,16.20
2019,05,06,09,51,16.20
2019,05,06,09,52,16.20
2019,05,06,09,53,16.20
2019,05,06,09,54,16.20
2019,05,06,09,55,16.20
2019,05,06,09,56,16.20
2019,05,06,09,57,16.20
2019,05,06,09,58,16.20
2019,05,06,09,59,16.30
2019,05,06,10,00,16.30
2019,05,06,10,01,16.30
2019,05,06,10,02,16.30
2019,05,06,10,03,16.40
2019,05,06,10,04,16.40
2019,05,06,10,05,16.40
2019,05,06,10,06,16.40
2019,05,06,10,07,16.40
2019,05,06,10,08,16.40
2019,05,06,10,09,16.50
2019,05,06,10,10,16.50
2019,05,06,10,11,16.40
2019,05,06,10,12,16.40
2019,05,06,10,13,16.40
2019,05,06,10,14,16.40
2019,05,06,10,15,16.40
2019,05,06,10,16,16.40
2019,05,06,10,17,16.50
2019,05,06,10,18,16.50
2019,05,06,10,19,16.50
2019,05,06,10,20,16.60
2019,05,06,10,21,16.60
2019,05,06,10,22,16.60
2019,05,06,10,23,16.70
2019,05,06,10,24,16.70
2019,05,06,10,25,16.70
2019,05,06,10,26,16.70
2019,05,06,10,27,16.70
2019,05,06,10,28,16.70
2019,05,06,10,29,16.80
2019,05,06,10,30,16.90
2019,05,06,10,31,16.90
2019,05,06,10,32,16.90
2019,05,06,10,33,17.00
2019,05,06,10,34,17.00
2019,05,06,10,35,17.00
2019,05,06,10,36,17.00
2019,05,06,10,37,16.90
2019,05,06,10,38,16.90
2019,05,06,10,39,16.80
2019,05,06,10,40,16.80
2019,05,06,10,41,16.80
2019,05,06,10,42,16.90
2019,05,06,10,43,16.90
2019,05,06,10,44,16.90
2019,05,06,10,45,16.90
2019,05,06,10,46,16.90
2019,05,06,10,47,16.90
2019,05,06,10,48,17.00
2019,05,06,10,49,17.20
2019,05,06,10,50,17.30
2019,05,06,10,51,17.40
2019,05,06,10,52,17.50
2019,05,06,10,53,17.50
2019,05,06,10,54,17.50
2019,05,06,10,55,17.60
2019,05,06,10,56,17.50
2019,05,06,10,57,17.50
2019,05,06,10,58,17.50
2019,05,06,10,59,17.50
2019,05,06,11,00,17.60
2019,05,06,11,01,17.60
2019,05,06,11,02,17.50
2019,05,06,11,03,17.40
2019,05,06,11,04,17.30
2019,05,06,11,05,17.30
2019,05,06,11,06,17.20
2019,05,06,11,07,17.20
2019,05,06,11,08,17.20
2019,05,06,11,09,17.20
2019,05,06,11,10,17.30
2019,05,06,11,11,17.30
2019,05,06,11,12,17.20
2019,05,06,11,13,17.30
2019,05,06,11,14,17.30
2019,05,06,11,15,17.30
2019,05,06,11,16,17.30
2019,05,06,11,17,17.30
2019,05,06,11,18,17.30
2019,05,06,11,19,17.30
2019,05,06,11,20,17.30
2019,05,06,11,21,17.40
2019,05,06,11,22,17.50
2019,05,06,11,23,17.50
2019,05,06,11,24,17.50
2019,05,06,11,25,17.50
2019,05,06,11,26,17.50
2019,05,06,11,27,17.60
2019,05,06,11,28,17.60
2019,05,06,11,29,17.70
2019,05,06,11,30,17.80
2019,05,06,11,31,17.90
2019,05,06,11,32,17.90
2019,05,06,11,33,17.90
2019,05,06,11,34,17.90
2019,05,06,11,35,17.90
2019,05,06,11,36,17.80
2019,05,06,11,37,17.80
2019,05,06,11,38,17.80
2019,05,06,11,39,17.80
2019,05,06,11,40,17.80
2019,05,06,11,41,17.80
2019,05,06,11,42,17.90
2019,05,06,11,43,18.00
2019,05,06,11,44,18.00
2019,05,06,11,45,17.90
2019,05,06,11,46,17.90
2019,05,06,11,47,17.70
2019,05,06,11,48,17.70
2019,05,06,11,49,17.70
2019,05,06,11,50,17.80
2019,05,06,11,51,17.80
2019,05,06,11,52,17.90
2019,05,06,11,53,17.90
2019,05,06,11,54,17.90
2019,05,06,11,55,17.90
2019,05,06,11,56,18.00
2019,05,06,11,57,18.00
2019,05,06,11,58,18.00
2019,05,06,11,59,18.10
2019,05,06,12,00,18.20
2019,05,06,12,01,18.20
2019,05,06,12,02,18.20
2019,05,06,12,03,18.30
2019,05,06,12,04,18.30
2019,05,06,12,05,18.30
2019,05,06,12,06,18.30
2019,05,06,12,07,18.30
2019,05,06,12,08,18.40
2019,05,06,12,09,18.40
2019,05,06,12,10,18.50
2019,05,06,12,11,18.50
2019,05,06,12,12,18.60
2019,05,06,12,13,18.60
2019,05,06,12,14,18.60
2019,05,06,12,15,18.60
2019,05,06,12,16,18.60
2019,05,06,12,17,18.50
2019,05,06,12,18,18.40
2019,05,06,12,19,18.40
2019,05,06,12,20,18.40
2019,05,06,12,21,18.30
2019,05,06,12,22,18.40
2019,05,06,12,23,18.40
2019,05,06,12,24,18.50
2019,05,06,12,25,18.60
2019,05,06,12,26,18.70
2019,05,06,12,27,18.70
2019,05,06,12,28,18.80
2019,05,06,12,29,18.70
2019,05,06,12,30,18.70
2019,05,06,12,31,18.70
2019,05,06,12,32,18.70
2019,05,06,12,33,18.70
2019,05,06,12,34,18.70
2019,05,06,12,35,18.70
2019,05,06,12,36,18.70
2019,05,06,12,37,18.70
2019,05,06,12,38,18.80
2019,05,06,12,39,18.80
2019,05,06,12,40,18.90
2019,05,06,12,41,19.00
2019,05,06,12,42,19.00
2019,05,06,12,43,19.00
2019,05,06,12,44,18.90
2019,05,06,12,45,18.90
2019,05,06,12,46,18.90
2019,05,06,12,47,18.90
2019,05,06,12,48,18.80
2019,05,06,12,49,18.70
2019,05,06,12,50,18.60
2019,05,06,12,51,18.50
2019,05,06,12,52,18.50
2019,05,06,12,53,18.50
2019,05,06,12,54,18.60
2019,05,06,12,55,18.60
2019,05,06,12,56,18.60
2019,05,06,12,57,18.60
2019,05,06,12,58,18.70
2019,05,06,12,59,18.90
2019,05,06,13,00,19.00
2019,05,06,13,01,19.20
2019,05,06,13,02,19.30
2019,05,06,13,03,19.30
2019,05,06,13,04,19.40
2019,05,06,13,05,19.40
2019,05,06,13,06,19.40
2019,05,06,13,07,19.40
2019,05,06,13,08,19.30
2019,05,06,13,09,19.30
2019,05,06,13,10,19.40
2019,05,06,13,11,19.40
2019,05,06,13,12,19.40
2019,05,06,13,13,19.40
2019,05,06,13,14,19.40
2019,05,06,13,15,19.30
2019,05,06,13,16,19.10
2019,05,06,13,17,19.00
2019,05,06,13,18,18.90
2019,05,06,13,19,18.80
2019,05,06,13,20,18.80
2019,05,06,13,21,18.60
2019,05,06,13,22,18.50
2019,05,06,13,23,18.40
2019,05,06,13,24,18.50
2019,05,06,13,25,18.60
2019,05,06,13,26,18.50
2019,05,06,13,27,18.50
2019,05,06,13,28,18.40
2019,05,06,13,29,18.30
2019,05,06,13,30,18.30
2019,05,06,13,31,18.40
2019,05,06,13,32,18.40
2019,05,06,13,33,18.40
2019,05,06,13,34,18.40
2019,05,06,13,35,18.30
2019,05,06,13,36,18.10
2019,05,06,13,37,18.00
2019,05,06,13,38,17.90
2019,05,06,13,39,17.80
2019,05,06,13,40,17.70
2019,05,06,13,41,17.70
2019,05,06,13,42,17.70
2019,05,06,13,43,17.70
2019,05,06,13,44,17.80
2019,05,06,13,45,17.90
2019,05,06,13,46,17.90
2019,05,06,13,47,17.90
2019,05,06,13,48,17.80
2019,05,06,13,49,17.80
2019,05,06,13,50,17.90
2019,05,06,13,51,18.00
2019,05,06,13,52,18.00
2019,05,06,13,53,18.00
2019,05,06,13,54,18.00
2019,05,06,13,55,18.10
2019,05,06,13,56,18.10
2019,05,06,13,57,18.20
2019,05,06,13,58,18.20
2019,05,06,13,59,18.20
2019,05,06,14,00,18.20
2019,05,06,14,01,18.30
2019,05,06,14,02,18.40
2019,05,06,14,03,18.40
2019,05,06,14,04,18.40
2019,05,06,14,05,18.50
2019,05,06,14,06,18.50
2019,05,06,14,07,18.50
2019,05,06,14,08,18.50
2019,05,06,14,09,18.50
2019,05,06,14,10,18.60
2019,05,06,14,11,18.60
2019,05,06,14,12,18.60
2019,05,06,14,13,18.60
2019,05,06,14,14,18.60
2019,05,06,14,15,18.70
2019,05,06,14,16,18.70
2019,05,06,14,17,18.70
2019,05,06,14,18,18.80
2019,05,06,14,19,18.90
2019,05,06,14,20,19.00
2019,05,06,14,21,19.10
2019,05,06,14,22,19.20
2019,05,06,14,23,19.30
2019,05,06,14,24,19.40
2019,05,06,14,25,19.50
2019,05,06,14,26,19.60
2019,05,06,14,27,19.80
2019,05,06,14,28,19.90
2019,05,06,14,29,19.90
2019,05,06,14,30,19.90
2019,05,06,14,31,20.00
2019,05,06,14,32,20.00
2019,05,06,14,33,20.00
2019,05,06,14,34,19.90
2019,05,06,14,35,19.90
2019,05,06,14,36,19.90
2019,05,06,14,37,19.90
2019,05,06,14,38,19.90
2019,05,06,14,39,19.90
2019,05,06,14,40,20.00
2019,05,06,14,41,20.10
2019,05,06,14,42,20.20
2019,05,06,14,43,20.30
2019,05,06,14,44,20.30
2019,05,06,14,45,20.40
2019,05,06,14,46,20.40
2019,05,06,14,47,20.30
2019,05,06,14,48,20.30
2019,05,06,14,49,20.40
2019,05,06,14,50,20.40
2019,05,06,14,51,20.40
2019,05,06,14,52,20.50
2019,05,06,14,53,20.60
2019,05,06,14,54,20.80
2019,05,06,14,55,20.90
2019,05,06,14,56,21.10
2019,05,06,14,57,21.20
2019,05,06,14,58,21.30
2019,05,06,14,59,21.50
2019,05,06,15,00,21.50
2019,05,06,15,01,21.50
2019,05,06,15,02,21.40
2019,05,06,15,03,21.40
2019,05,06,15,04,21.40
2019,05,06,15,05,21.50
2019,05,06,15,06,21.50
2019,05,06,15,07,21.50
2019,05,06,15,08,21.60
2019,05,06,15,09,21.70
2019,05,06,15,10,21.70
2019,05,06,15,11,21.80
2019,05,06,15,12,21.90
2019,05,06,15,13,21.80
2019,05,06,15,14,21.80
2019,05,06,15,15,21.80
2019,05,06,15,16,21.80
2019,05,06,15,17,21.70
2019,05,06,15,18,21.70
2019,05,06,15,19,21.60
2019,05,06,15,20,21.50
2019,05,06,15,21,21.40
2019,05,06,15,22,21.30
2019,05,06,15,23,21.20
2019,05,06,15,24,21.20
2019,05,06,15,25,21.20
2019,05,06,15,26,21.20
2019,05,06,15,27,21.30
2019,05,06,15,28,21.30
2019,05,06,15,29,21.30
2019,05,06,15,30,21.30
2019,05,06,15,31,21.30
2019,05,06,15,32,21.30
2019,05,06,15,33,21.30
2019,05,06,15,34,21.30
2019,05,06,15,35,21.30
2019,05,06,15,36,21.30
2019,05,06,15,37,21.30
2019,05,06,15,38,21.30
2019,05,06,15,39,21.40
2019,05,06,15,40,21.40
2019,05,06,15,41,21.50
2019,05,06,15,42,21.60
2019,05,06,15,43,21.60
2019,05,06,15,44,21.60
2019,05,06,15,45,21.60
2019,05,06,15,46,21.60
2019,05,06,15,47,21.40
2019,05,06,15,48,21.30
2019,05,06,15,49,21.10
2019,05,06,15,50,20.90
2019,05,06,15,51,20.60
2019,05,06,15,52,20.30
2019,05,06,15,53,20.00
2019,05,06,15,54,19.80
2019,05,06,15,55,19.70
2019,05,06,15,56,19.70
2019,05,06,15,57,19.60
2019,05,06,15,58,19.50
2019,05,06,15,59,19.40
2019,05,06,16,00,19.40
2019,05,06,16,01,19.40
2019,05,06,16,02,19.40
2019,05,06,16,03,19.40
2019,05,06,16,04,19.40
2019,05,06,16,05,19.40
2019,05,06,16,06,19.50
2019,05,06,16,07,19.70
2019,05,06,16,08,19.80
2019,05,06,16,09,20.00
2019,05,06,16,10,20.20
2019,05,06,16,11,20.50
2019,05,06,16,12,20.70
2019,05,06,16,13,20.80
2019,05,06,16,14,20.80
2019,05,06,16,15,20.90
2019,05,06,16,16,20.90
2019,05,06,16,17,20.90
2019,05,06,16,18,20.80
2019,05,06,16,19,20.70
2019,05,06,16,20,20.70
2019,05,06,16,21,20.60
2019,05,06,16,22,20.60
2019,05,06,16,23,20.60
2019,05,06,16,24,20.60
2019,05,06,16,25,20.60
2019,05,06,16,26,20.50
2019,05,06,16,27,20.40
2019,05,06,16,28,20.40
2019,05,06,16,29,20.50
2019,05,06,16,30,20.50
2019,05,06,16,31,20.60
2019,05,06,16,32,20.60
2019,05,06,16,33,20.60
2019,05,06,16,34,20.60
2019,05,06,16,35,20.60
2019,05,06,16,36,20.50
2019,05,06,16,37,20.50
2019,05,06,16,38,20.50
2019,05,06,16,39,20.40
2019,05,06,16,40,20.50
2019,05,06,16,41,20.60
2019,05,06,16,42,20.60
2019,05,06,16,43,20.60
2019,05,06,16,44,20.50
2019,05,06,16,45,20.40
2019,05,06,16,46,20.30
2019,05,06,16,47,20.30
2019,05,06,16,48,20.20
2019,05,06,16,49,20.20
2019,05,06,16,50,20.10
2019,05,06,16,51,20.20
2019,05,06,16,52,20.20
2019,05,06,16,53,20.10
2019,05,06,16,54,20.00
2019,05,06,16,55,19.90
2019,05,06,16,56,19.80
2019,05,06,16,57,19.70
2019,05,06,16,58,19.60
2019,05,06,16,59,19.50
2019,05,06,17,00,19.40
2019,05,06,17,01,19.40
2019,05,06,17,02,19.40
2019,05,06,17,03,19.30
2019,05,06,17,04,19.30
2019,05,06,17,05,19.20
2019,05,06,17,06,19.20
2019,05,06,17,07,19.20
2019,05,06,17,08,19.20
2019,05,06,17,09,19.30
2019,05,06,17,10,19.20
2019,05,06,17,11,19.20
2019,05,06,17,12,19.20
2019,05,06,17,13,19.20
2019,05,06,17,14,19.30
2019,05,06,17,15,19.40
2019,05,06,17,16,19.50
2019,05,06,17,17,19.60
2019,05,06,17,18,19.70
2019,05,06,17,19,19.70
2019,05,06,17,20,19.60
2019,05,06,17,21,19.50
2019,05,06,17,22,19.40
2019,05,06,17,23,19.40
2019,05,06,17,24,19.40
2019,05,06,17,25,19.30
2019,05,06,17,26,19.30
2019,05,06,17,27,19.30
2019,05,06,17,28,19.20
2019,05,06,17,29,19.10
2019,05,06,17,30,19.00
2019,05,06,17,31,19.00
2019,05,06,17,32,19.00